This demonstration page uses our WeatherBlox Daily Observations layout. Learn more.

39.29038, -76.61219

Hourly Observations for December 19, 2019

Temp ( °F °C ) Dew Point ( °F °C ) Humidity (%) Winds ( mph kmh ) Pressure ( in mb ) Visibility ( mi km ) Precip ( " mm )
12:54 am 00:54 undefined 26 -3.3 6 -14.4 42 42 undefined N/A 30.24 1024 N/A 0 0
1:39 am 01:39 undefined 25 -3.9 8 -13.3 48 48 undefined N/A 30.33 1027 N/A 0 0
1:54 am 01:54 undefined 25 -3.9 9 -12.8 50 50 undefined N/A 30.33 1027 N/A 0 0
2:54 am 02:54 undefined 24 -4.4 5 -15 44 44 undefined N/A 30.25 1024 N/A 0 0
3:46 am 03:46 undefined 23 -5 3 -16.1 42 42 undefined N/A 30.37 1028 N/A 0 0
3:54 am 03:54 undefined 23 -5 3 -16.1 42 42 undefined N/A 30.37 1028 N/A 0 0
4:54 am 04:54 undefined 23 -5 2 -16.7 40 40 undefined N/A 30.36 1028 N/A 0 0
5:54 am 05:54 undefined 22 -5.6 2 -16.7 42 42 undefined N/A 30.39 1029 N/A 0 0
6:54 am 06:54 undefined 22 -5.6 2 -16.7 42 42 undefined N/A 30.41 1030 N/A 0 0
7:54 am 07:54 undefined 22 -5.6 3 -16.1 44 44 undefined N/A 30.44 1031 N/A 0 0
8:54 am 08:54 undefined 24 -4.4 4 -15.6 42 42 undefined N/A 30.42 1030 N/A 0 0
9:54 am 09:54 undefined 25 -3.9 3 -16.1 39 39 undefined N/A 30.49 1033 N/A 0 0
10:54 am 10:54 undefined 27 -2.8 4 -15.6 37 37 undefined N/A 30.51 1033 N/A 0 0
11:54 am 11:54 undefined 28 -2.2 5 -15 37 37 undefined N/A 30.48 1032 N/A 0 0
12:54 pm 12:54 undefined 28 -2.2 5 -15 37 37 undefined N/A 30.44 1031 N/A 0 0
1:54 pm 13:54 undefined 30 -1.1 7 -13.9 38 38 undefined N/A 30.43 1030 N/A 0 0
2:54 pm 14:54 undefined 31 -0.6 6 -14.4 35 35 undefined N/A 30.37 1028 N/A 0 0
3:54 pm 15:54 undefined 31 -0.6 8 -13.3 38 38 undefined N/A 30.41 1030 N/A 0 0
4:54 pm 16:54 undefined 31 -0.6 9 -12.8 40 40 undefined N/A 30.43 1030 N/A 0 0
5:54 pm 17:54 undefined 30 -1.1 9 -12.8 41 41 undefined N/A 30.45 1031 N/A 0 0
6:54 pm 18:54 undefined 30 -1.1 9 -12.8 41 41 undefined N/A 30.45 1031 N/A 0 0
7:54 pm 19:54 undefined 30 -1.1 10 -12.2 43 43 undefined N/A 30.47 1032 N/A 0 0
8:54 pm 20:54 undefined 30 -1.1 13 -10.6 49 49 undefined N/A 30.48 1032 N/A 0 0
9:54 pm 21:54 undefined 28 -2.2 12 -11.1 51 51 undefined N/A 30.47 1032 N/A 0 0
10:54 pm 22:54 undefined 28 -2.2 12 -11.1 51 51 undefined N/A 30.47 1032 N/A 0 0
11:54 pm 23:54 undefined 28 -2.2 12 -11.1 51 51 undefined N/A 30.46 1031 N/A 0 0

Powered by AerisWeather